FLOCK 4G 14

导读

FLOCK 4G 14卫星由美国发射升空,发射时间为2025年1月14日,属于FLOCK 4G卫星星座系列。该星座由多颗小型卫星组成,主要用于对地观测,可提供高分辨率遥感影像,在环境监测、农业估产、城市规划、灾害评估等领域发挥作用,进一步补充了地球观测数据资源。

基本信息
目录编号:
62667
目录名称:
FLOCK 4G 14
国际标识:
2025-009BL
轨道中心:
EARTH
卫星名称:
FLOCK 4G 14
卫星全名:
FLOCK 4G 14
卫星状态:
在轨 (已飞行599 天)
发射日期:
2025-01-14 UTC
国别 :
美国 (US)
星等 :
--
轨道信息
数据来源 国际轨道数据
星历时间: 2026-09-04T02:28:11+0800
1天前
查看轨道信息
半长轴: 6852.013km
偏心率: 0.0005158
轨道倾角: 97.398°
近地点辐角 53.565°
升交点赤经 328.272°
平近点角 306.606°
近地点: 470.341km
远地点: 477.411km
周期: 94.078分钟
每日圈数: 15.306486
详细信息
使用方式:
暂无
2D轨道图
3D轨道图
轨道高度分析图
轨道倾角分析图
轨道综合分析图
查看轨道综合分析图
交会数据列表
事件ID 空间交会对象 最接近时刻(TCA) 交会距离 交会风险概率(CRP) 交会风险指数(CRI) 操作
CDM_260907-050105-778206-266721
2026-09-07T
05:01:25+0000
1.713 km
极远距离
3.588734E-6 低风险 0.46
CDM_260907-142605-880706-266721
2026-09-07T
14:26:05+0000
2.004 km
极远距离
2.575356E-6 低风险 0.43
CDM_260906-224506-266706-382721
2026-09-06T
22:45:05+0000
2.401 km
极远距离
1.668095E-6 低风险 0.39
CDM_260906-004505-813906-266722
2026-09-06T
00:45:03+0000
2.541 km
极远距离
1.621072E-6 低风险 0.39
CDM_260906-112306-266706-388521
2026-09-06T
11:23:30+0000
2.825 km
极远距离
1.462615E-6 低风险 0.38
CDM_260831-015406-266706-746022
2026-08-31T
01:54:07+0000
2.241 km
极远距离
1.440445E-6 低风险 0.38
CDM_260831-033205-791406-266722
2026-08-31T
03:32:10+0000
2.781 km
极远距离
1.094197E-6 低风险 0.36